Time,TemperatureF,DewpointF,PressureIn,WindDirection,WindDirectionDegrees,WindSpeedMPH,WindSpeedGustMPH,Humidity,HourlyPrecipIn,Conditions,Clouds,dailyrainin,SolarRadiationWatts/m^2,SoftwareType,DateUTC
2013-04-03 00:03:00,34.0,11.0,-100.00,West,262,6.0,21.0,38,0.00,,,0.00,0.000000,,2013-04-03 04:03:00,
2013-04-03 00:12:00,34.0,13.0,-100.00,WSW,251,8.0,24.0,42,0.00,,,0.00,0.000000,,2013-04-03 04:12:00,
2013-04-03 00:33:00,34.0,13.0,-100.00,WSW,251,8.0,24.0,42,0.00,,,0.00,0.000000,,2013-04-03 04:33:00,
2013-04-03 00:43:00,34.0,13.0,-100.00,WSW,251,8.0,24.0,42,0.00,,,0.00,0.000000,,2013-04-03 04:43:00,
2013-04-03 00:53:00,34.0,13.0,-100.00,WSW,251,8.0,24.0,42,0.00,,,0.00,0.000000,,2013-04-03 04:53:00,
2013-04-03 01:03:00,34.0,13.0,-100.00,WSW,251,8.0,24.0,42,0.00,,,0.00,0.000000,,2013-04-03 05:03:00,
2013-04-03 01:12:00,33.0,13.0,-100.00,WSW,242,9.0,21.0,44,0.00,,,0.00,0.000000,,2013-04-03 05:12:00,
2013-04-03 01:42:00,33.0,13.0,-100.00,WSW,242,9.0,21.0,44,0.00,,,0.00,0.000000,,2013-04-03 05:42:00,
2013-04-03 01:53:00,33.0,13.0,-100.00,WSW,242,9.0,21.0,44,0.00,,,0.00,0.000000,,2013-04-03 05:53:00,
2013-04-03 02:03:00,33.0,13.0,-100.00,WSW,242,9.0,21.0,44,0.00,,,0.00,0.000000,,2013-04-03 06:03:00,
2013-04-03 02:12:00,33.0,14.0,-100.00,WSW,245,9.0,20.0,46,0.00,,,0.00,0.000000,,2013-04-03 06:12:00,
2013-04-03 02:32:00,33.0,14.0,-100.00,WSW,245,9.0,20.0,46,0.00,,,0.00,0.000000,,2013-04-03 06:32:00,
2013-04-03 02:42:00,33.0,14.0,-100.00,WSW,245,9.0,20.0,46,0.00,,,0.00,0.000000,,2013-04-03 06:42:00,
2013-04-03 02:52:00,33.0,14.0,-100.00,WSW,245,9.0,20.0,46,0.00,,,0.00,0.000000,,2013-04-03 06:52:00,
2013-04-03 03:02:00,33.0,14.0,-100.00,WSW,245,9.0,20.0,46,0.00,,,0.00,0.000000,,2013-04-03 07:02:00,
2013-04-03 03:12:00,33.0,14.0,-100.00,WSW,256,7.0,25.0,46,0.00,,,-99.99,0.000000,,2013-04-03 07:12:00,
2013-04-03 03:33:00,33.0,14.0,-100.00,WSW,256,7.0,25.0,46,0.00,,,-99.99,0.000000,,2013-04-03 07:33:00,
2013-04-03 03:43:00,33.0,14.0,-100.00,WSW,256,7.0,25.0,46,0.00,,,-99.99,0.000000,,2013-04-03 07:43:00,
2013-04-03 03:53:00,33.0,14.0,-100.00,WSW,256,7.0,25.0,46,0.00,,,-99.99,0.000000,,2013-04-03 07:53:00,
2013-04-03 04:03:00,33.0,14.0,-100.00,WSW,256,7.0,25.0,46,0.00,,,-99.99,0.000000,,2013-04-03 08:03:00,
2013-04-03 04:12:00,32.0,14.0,-100.00,WSW,251,7.0,19.0,47,0.00,,,0.00,0.000000,,2013-04-03 08:12:00,
2013-04-03 04:33:00,32.0,14.0,-100.00,WSW,251,7.0,19.0,47,0.00,,,0.00,0.000000,,2013-04-03 08:33:00,
2013-04-03 04:43:00,32.0,14.0,-100.00,WSW,251,7.0,19.0,47,0.00,,,0.00,0.000000,,2013-04-03 08:43:00,
2013-04-03 04:52:00,32.0,14.0,-100.00,WSW,251,7.0,19.0,47,0.00,,,0.00,0.000000,,2013-04-03 08:52:00,
2013-04-03 05:02:00,32.0,14.0,-100.00,WSW,251,7.0,19.0,47,0.00,,,0.00,0.000000,,2013-04-03 09:02:00,
2013-04-03 05:12:00,32.0,15.0,-100.00,WSW,251,7.0,18.0,49,0.00,,,0.00,0.000000,,2013-04-03 09:12:00,
2013-04-03 05:43:00,32.0,15.0,-100.00,WSW,251,7.0,18.0,49,0.00,,,0.00,0.000000,,2013-04-03 09:43:00,
2013-04-03 05:53:00,32.0,15.0,-100.00,WSW,251,7.0,18.0,49,0.00,,,0.00,0.000000,,2013-04-03 09:53:00,
2013-04-03 06:03:00,32.0,15.0,-100.00,WSW,251,7.0,18.0,49,0.00,,,0.00,0.000000,,2013-04-03 10:03:00,
2013-04-03 06:12:00,32.0,15.0,-100.00,WSW,255,7.0,16.0,48,0.00,,,0.00,0.000000,,2013-04-03 10:12:00,
2013-04-03 06:43:00,32.0,15.0,-100.00,WSW,255,7.0,16.0,48,0.00,,,0.00,0.000000,,2013-04-03 10:43:00,
2013-04-03 06:53:00,32.0,15.0,-100.00,WSW,255,7.0,16.0,48,0.00,,,0.00,0.000000,,2013-04-03 10:53:00,
2013-04-03 07:02:00,32.0,15.0,-100.00,WSW,255,7.0,16.0,48,0.00,,,0.00,0.000000,,2013-04-03 11:02:00,
2013-04-03 07:12:00,33.0,15.0,-100.00,West,263,6.0,19.0,47,0.00,,,0.00,44.000000,,2013-04-03 11:12:00,
2013-04-03 07:42:00,33.0,15.0,-100.00,West,263,6.0,19.0,47,0.00,,,0.00,44.000000,,2013-04-03 11:42:00,
2013-04-03 07:53:00,33.0,15.0,-100.00,West,263,6.0,19.0,47,0.00,,,0.00,44.000000,,2013-04-03 11:53:00,
2013-04-03 08:02:00,33.0,15.0,-100.00,West,263,6.0,19.0,47,0.00,,,0.00,44.000000,,2013-04-03 12:02:00,
2013-04-03 08:12:00,35.0,15.0,-100.00,West,261,8.0,20.0,43,0.00,,,-99.99,248.000000,,2013-04-03 12:12:00,
2013-04-03 08:33:00,35.0,15.0,-100.00,West,261,8.0,20.0,43,0.00,,,-99.99,248.000000,,2013-04-03 12:33:00,
2013-04-03 08:42:00,35.0,15.0,-100.00,West,261,8.0,20.0,43,0.00,,,-99.99,248.000000,,2013-04-03 12:42:00,
2013-04-03 08:52:00,35.0,15.0,-100.00,West,261,8.0,20.0,43,0.00,,,-99.99,248.000000,,2013-04-03 12:52:00,
2013-04-03 09:02:00,35.0,15.0,-100.00,West,261,8.0,20.0,43,0.00,,,-99.99,248.000000,,2013-04-03 13:02:00,
2013-04-03 09:12:00,37.0,13.0,-100.00,WSW,254,8.0,19.0,36,0.00,,,0.00,607.000000,,2013-04-03 13:12:00,
2013-04-03 09:42:00,37.0,13.0,-100.00,WSW,254,8.0,19.0,36,0.00,,,0.00,607.000000,,2013-04-03 13:42:00,
2013-04-03 09:52:00,37.0,13.0,-100.00,WSW,254,8.0,19.0,36,0.00,,,0.00,607.000000,,2013-04-03 13:52:00,
2013-04-03 10:02:00,37.0,13.0,-100.00,WSW,254,8.0,19.0,36,0.00,,,0.00,607.000000,,2013-04-03 14:02:00,
2013-04-03 10:12:00,38.0,13.0,-100.00,WSW,247,9.0,22.0,35,0.00,,,0.00,834.000000,,2013-04-03 14:12:00,
2013-04-03 10:43:00,38.0,13.0,-100.00,WSW,247,9.0,22.0,35,0.00,,,0.00,834.000000,,2013-04-03 14:43:00,
2013-04-03 10:52:00,38.0,13.0,-100.00,WSW,247,9.0,22.0,35,0.00,,,0.00,834.000000,,2013-04-03 14:52:00,
2013-04-03 11:02:00,38.0,13.0,-100.00,WSW,247,9.0,22.0,35,0.00,,,0.00,834.000000,,2013-04-03 15:02:00,
2013-04-03 11:12:00,41.0,13.0,-100.00,WSW,253,9.0,21.0,31,0.00,,,0.00,1028.000000,,2013-04-03 15:12:00,
2013-04-03 11:43:00,41.0,13.0,-100.00,WSW,253,9.0,21.0,31,0.00,,,0.00,1028.000000,,2013-04-03 15:43:00,
2013-04-03 11:53:00,41.0,13.0,-100.00,WSW,253,9.0,21.0,31,0.00,,,0.00,1028.000000,,2013-04-03 15:53:00,
2013-04-03 12:04:00,41.0,13.0,-100.00,WSW,253,9.0,21.0,31,0.00,,,0.00,1028.000000,,2013-04-03 16:04:00,
2013-04-03 12:12:00,44.0,15.0,-100.00,West,263,7.0,19.0,31,0.00,,,0.00,1138.000000,,2013-04-03 16:12:00,
2013-04-03 12:44:00,44.0,15.0,-100.00,West,263,7.0,19.0,31,0.00,,,0.00,1138.000000,,2013-04-03 16:44:00,
2013-04-03 12:53:00,44.0,15.0,-100.00,West,263,7.0,19.0,31,0.00,,,0.00,1138.000000,,2013-04-03 16:53:00,
2013-04-03 13:03:00,44.0,15.0,-100.00,West,263,7.0,19.0,31,0.00,,,0.00,1138.000000,,2013-04-03 17:03:00,
2013-04-03 13:12:00,44.0,14.0,-100.00,WSW,237,9.0,22.0,29,0.00,,,0.00,1168.000000,,2013-04-03 17:12:00,
2013-04-03 13:35:00,44.0,14.0,-100.00,WSW,237,9.0,22.0,29,0.00,,,0.00,1168.000000,,2013-04-03 17:35:00,
2013-04-03 13:47:00,44.0,14.0,-100.00,WSW,237,9.0,22.0,29,0.00,,,0.00,1168.000000,,2013-04-03 17:47:00,
2013-04-03 13:54:00,44.0,14.0,-100.00,WSW,237,9.0,22.0,29,0.00,,,0.00,1168.000000,,2013-04-03 17:54:00,
2013-04-03 14:02:00,44.0,14.0,-100.00,WSW,237,9.0,22.0,29,0.00,,,0.00,1168.000000,,2013-04-03 18:02:00,
2013-04-03 14:12:00,46.0,13.0,-100.00,SW,233,9.0,24.0,26,0.00,,,0.00,1118.000000,,2013-04-03 18:12:00,
2013-04-03 14:34:00,46.0,13.0,-100.00,SW,233,9.0,24.0,26,0.00,,,0.00,1118.000000,,2013-04-03 18:34:00,
2013-04-03 14:43:00,46.0,13.0,-100.00,SW,233,9.0,24.0,26,0.00,,,0.00,1118.000000,,2013-04-03 18:43:00,
2013-04-03 14:52:00,46.0,13.0,-100.00,SW,233,9.0,24.0,26,0.00,,,0.00,1118.000000,,2013-04-03 18:52:00,
2013-04-03 15:03:00,46.0,13.0,-100.00,SW,233,9.0,24.0,26,0.00,,,0.00,1118.000000,,2013-04-03 19:03:00,
2013-04-03 15:12:00,48.0,16.0,-100.00,WSW,246,7.0,21.0,27,0.00,,,0.00,992.000000,,2013-04-03 19:12:00,
2013-04-03 15:42:00,48.0,16.0,-100.00,WSW,246,7.0,21.0,27,0.00,,,0.00,992.000000,,2013-04-03 19:42:00,
2013-04-03 15:52:00,48.0,16.0,-100.00,WSW,246,7.0,21.0,27,0.00,,,0.00,992.000000,,2013-04-03 19:52:00,
2013-04-03 16:02:00,48.0,16.0,-100.00,WSW,246,7.0,21.0,27,0.00,,,0.00,992.000000,,2013-04-03 20:02:00,
2013-04-03 16:12:00,48.0,16.0,-100.00,WSW,250,7.0,20.0,28,0.00,,,0.00,801.000000,,2013-04-03 20:12:00,
2013-04-03 16:42:00,48.0,16.0,-100.00,WSW,250,7.0,20.0,28,0.00,,,0.00,801.000000,,2013-04-03 20:42:00,
2013-04-03 16:54:00,48.0,16.0,-100.00,WSW,250,7.0,20.0,28,0.00,,,0.00,801.000000,,2013-04-03 20:54:00,
2013-04-03 17:03:00,48.0,16.0,-100.00,WSW,250,7.0,20.0,28,0.00,,,0.00,801.000000,,2013-04-03 21:03:00,
2013-04-03 17:12:00,46.0,16.0,-100.00,West,264,4.0,15.0,29,0.00,,,-99.99,557.000000,,2013-04-03 21:12:00,
2013-04-03 17:33:00,46.0,16.0,-100.00,West,264,4.0,15.0,29,0.00,,,-99.99,557.000000,,2013-04-03 21:33:00,
2013-04-03 17:42:00,46.0,16.0,-100.00,West,264,4.0,15.0,29,0.00,,,-99.99,557.000000,,2013-04-03 21:42:00,
2013-04-03 17:52:00,46.0,16.0,-100.00,West,264,4.0,15.0,29,0.00,,,-99.99,557.000000,,2013-04-03 21:52:00,
2013-04-03 18:02:00,46.0,16.0,-100.00,West,264,4.0,15.0,29,0.00,,,-99.99,557.000000,,2013-04-03 22:02:00,
2013-04-03 18:12:00,43.0,18.0,-100.00,WSW,255,5.0,14.0,36,0.00,,,0.00,68.000000,,2013-04-03 22:12:00,
2013-04-03 18:33:00,43.0,18.0,-100.00,WSW,255,5.0,14.0,36,0.00,,,0.00,68.000000,,2013-04-03 22:33:00,
2013-04-03 18:42:00,43.0,18.0,-100.00,WSW,255,5.0,14.0,36,0.00,,,0.00,68.000000,,2013-04-03 22:42:00,
2013-04-03 18:53:00,43.0,18.0,-100.00,WSW,255,5.0,14.0,36,0.00,,,0.00,68.000000,,2013-04-03 22:53:00,
2013-04-03 19:02:00,43.0,18.0,-100.00,WSW,255,5.0,14.0,36,0.00,,,0.00,68.000000,,2013-04-03 23:02:00,
2013-04-03 19:12:00,41.0,18.0,-100.00,WSW,246,6.0,13.0,39,0.00,,,0.00,23.000000,,2013-04-03 23:12:00,
2013-04-03 19:33:00,41.0,18.0,-100.00,WSW,246,6.0,13.0,39,0.00,,,0.00,23.000000,,2013-04-03 23:33:00,
2013-04-03 19:43:00,41.0,18.0,-100.00,WSW,246,6.0,13.0,39,0.00,,,0.00,23.000000,,2013-04-03 23:43:00,
2013-04-03 19:55:00,41.0,18.0,-100.00,WSW,246,6.0,13.0,39,0.00,,,0.00,23.000000,,2013-04-03 23:55:00,
2013-04-03 20:03:00,41.0,18.0,-100.00,WSW,246,6.0,13.0,39,0.00,,,0.00,23.000000,,2013-04-04 00:03:00,
2013-04-03 20:12:00,40.0,16.0,-100.00,West,259,5.0,11.0,38,0.00,,,0.00,0.000000,,2013-04-04 00:12:00,
2013-04-03 20:32:00,40.0,16.0,-100.00,West,259,5.0,11.0,38,0.00,,,0.00,0.000000,,2013-04-04 00:32:00,
2013-04-03 20:43:00,40.0,16.0,-100.00,West,259,5.0,11.0,38,0.00,,,0.00,0.000000,,2013-04-04 00:43:00,
2013-04-03 20:52:00,40.0,16.0,-100.00,West,259,5.0,11.0,38,0.00,,,0.00,0.000000,,2013-04-04 00:52:00,
2013-04-03 21:02:00,40.0,16.0,-100.00,West,259,5.0,11.0,38,0.00,,,0.00,0.000000,,2013-04-04 01:02:00,
2013-04-03 21:12:00,39.0,16.0,-100.00,West,268,5.0,14.0,38,0.00,,,0.00,0.000000,,2013-04-04 01:12:00,
2013-04-03 21:32:00,39.0,16.0,-100.00,West,268,5.0,14.0,38,0.00,,,0.00,0.000000,,2013-04-04 01:32:00,
2013-04-03 21:43:00,39.0,16.0,-100.00,West,268,5.0,14.0,38,0.00,,,0.00,0.000000,,2013-04-04 01:43:00,
2013-04-03 21:53:00,39.0,16.0,-100.00,West,268,5.0,14.0,38,0.00,,,0.00,0.000000,,2013-04-04 01:53:00,
2013-04-03 22:02:00,39.0,16.0,-100.00,West,268,5.0,14.0,38,0.00,,,0.00,0.000000,,2013-04-04 02:02:00,
2013-04-03 22:12:00,37.0,14.0,-100.00,West,268,6.0,17.0,39,0.00,,,0.00,0.000000,,2013-04-04 02:12:00,
2013-04-03 23:02:00,37.0,14.0,-100.00,West,268,6.0,17.0,39,0.00,,,0.00,0.000000,,2013-04-04 03:02:00,
2013-04-03 23:12:00,36.0,15.0,-100.00,West,274,6.0,14.0,42,0.00,,,0.00,0.000000,,2013-04-04 03:12:00,
2013-04-03 23:34:00,36.0,15.0,-100.00,West,274,6.0,14.0,42,0.00,,,0.00,0.000000,,2013-04-04 03:34:00,
2013-04-03 23:45:00,36.0,15.0,-100.00,West,274,6.0,14.0,42,0.00,,,0.00,0.000000,,2013-04-04 03:45:00,
2013-04-03 23:53:00,36.0,15.0,-100.00,West,274,6.0,14.0,42,0.00,,,0.00,0.000000,,2013-04-04 03:53:00,